Погода в Биллингсе

США     45°46′58″N   108°30′15″W
темп.,
°C
ветер,
м/с
пор.,
м/с
влажн.,
%
обл.,
%
осадки,
мм/ч
давл.,
гПа
погр.,
м
21 октября, чт
чт2100:00+6юз22675 0.0 101816
03:00+6зюз336786 0.0 101927
06:00+5зюз3370100 0.0 102017
09:00+9зюз236036 0.0 101991
12:00+16ююз253680 0.0 1016925
15:00+19зюз673077 0.0 10141230
18:00+15юз23396 0.0 101312
21:00+11зюз22480 0.0 101510
22 октября, пт
пт2200:00+9юз11580 0.0 101410
03:00+8ююв11614 0.0 101310
06:00+7ю11705 0.0 101210
09:00+10юз11545 0.0 101218
12:00+16ююз13355 0.0 1008466
15:00+20в1129100 0.0 1004669
18:00+16вюв3338100 0.0 100232
21:00+13юв334384 0.0 100126
23 октября, сб
сб2300:00+12юв1147100 0.0 99910
03:00+12зюз224559 0.0 99917
06:00+10з3346100 0.0 100035
09:00+10зюз3742100 0.0 1003202
12:00+14з4631100 0.0 1002935
15:00+15з3427100 0.0 10011609
18:00+12ю223474 0.0 100111
21:00+10с484691 0.0 1003181
24 октября, вс
вс2400:00+7юз225530 0.0 100515
03:00+7ююз2259100 0.0 100514
06:00+5юз226924 0.0 100614
09:00+7юз23600 0.0 100781
12:00+13ю13380 0.0 1005808
15:00+16ю24255 0.0 10011840
18:00+13юв5834100 0.0 1000136
21:00+11вюв3838100 0.0 998169
25 октября, пн
пн2500:00+9вюв3443100 0.0 99667
03:00+11юв2336100 0.0 99360
06:00+10сз2343100 0.0 99144
09:00+10ссв3345100 0.0 98963
12:00+15зюз5738100 0.0 989708
15:00+15зсз81035100 0.0 9891747
18:00+12сз61234100 0.0 992546
21:00+10зсз31137100 0.0 996663